Regional Weather Roundup
Issued by NWS Charleston, WV

Home | Current Version | Previous Version | Graphics & Text | Print | Product List | Glossary On
Versions: 1 2 3 4 5 6 7 8 9 10 11 12 13 14 15 16 17 18 19 20 21 22 23 24 25 26 27 28 29 30 31 32 33 34 35 36 37 38 39 40 41 42 43 44 45 46 47 48 49 50
000
ASUS41 KRLX 291010
RWRRLX
West Virginia Regional Weather Roundup
National Weather Service Charleston WV
600 AM EDT SAT AUG 29 2015

Note: "fair" indicates few or no clouds below 12,000 feet with no
significant weather and/or obstructions to visibility.

WVZ003-291100-
Northern Panhandle of West Virginia

CITY           SKY/WX    TMP DP  RH WIND       PRES   REMARKS
WHEELING       CLEAR     58  54  86 CALM      30.16S
$$

WVZ009-291100-
Northwest West Virginia

CITY           SKY/WX    TMP DP  RH WIND       PRES   REMARKS
PARKERSBURG    FOG       57  56  96 CALM      30.18S VSB<1/4
$$

WVZ006-291100-
Western West Virginia

CITY           SKY/WX    TMP DP  RH WIND       PRES   REMARKS
HUNTINGTON     CLEAR     59  58  96 CALM      30.15R
$$

WVZ015-291100-
West Central West Virginia

CITY           SKY/WX    TMP DP  RH WIND       PRES   REMARKS
CHARLESTON     PTCLDY    60  59  96 CALM      30.16S
$$

WVZ022-031-291100-
North Central West Virginia

CITY           SKY/WX    TMP DP  RH WIND       PRES   REMARKS
CLARKSBURG     CLEAR     55  54  96 CALM      30.17F
MORGANTOWN     CLEAR     60  53  77 CALM      30.19S
$$

WVZ025-035-042-045-291100-
Southern West Virginia

CITY           SKY/WX    TMP DP  RH WIND       PRES   REMARKS
BECKLEY        PTCLDY    63  56  78 SE5       30.25S
LOGAN            N/A     64  61  88 CALM      30.20R
BLUEFIELD      PTCLDY    67  55  65 SW3       30.28R
LEWISBURG      FOG       57  56  94 CALM      30.26R VSB 1/4
$$

WVZ047-291100-
Northern Mountains of West Virginia

CITY           SKY/WX    TMP DP  RH WIND       PRES   REMARKS
ELKINS         FOG       53  52  96 CALM      30.24R VSB 1/2
$$

WVZ052-291100-
Eastern Panhandle of West Virginia

CITY           SKY/WX    TMP DP  RH WIND       PRES   REMARKS
MARTINSBURG    CLEAR     58  57  97 CALM      30.18S FOG
PETERSBURG     CLEAR     55  55  98 CALM      30.20S FOG
$$


USA.gov is the U.S. government's official web portal to all federal, state and local government web resources and services.